| time (UTC) | temp F | wind direction | speed knots | gust knots | rain 1hr in | rain 24hr in | rain mn in | humidity % | barometer mb |
| 20260902120043 | 79 | 248 | 3.5 | 10.4 | 0.01 | 0.00 | 0.01 | 57 | |
| 20260902115048 | 80 | 268 | 3.5 | 8.7 | 0.01 | 0.00 | 0.01 | 58 | |
| 20260902114044 | 80 | 252 | 3.5 | 10.4 | 0.01 | 0.00 | 0.01 | 59 | |
| 20260902113057 | 80 | 224 | 4.3 | 10.4 | 0.00 | 0.00 | 0.00 | 60 | |
| 20260902112047 | 80 | 243 | 4.3 | 9.6 | 0.00 | 0.00 | 0.00 | 61 | |
| 20260902111057 | 79 | 246 | 4.3 | 10.4 | 0.00 | 0.00 | 0.00 | 61 | |
| 20260902110051 | 77 | 250 | 4.3 | 11.3 | 0.00 | 0.00 | 0.00 | 63 | |
| 20260902105046 | 76 | 252 | 3.5 | 11.3 | 0.00 | 0.00 | 0.00 | 64 | |
| 20260902104055 | 75 | 287 | 3.5 | 11.3 | 0.00 | 0.00 | 0.00 | 65 | |
| 20260902103047 | 76 | 223 | 3.5 | 10.4 | 0.00 | 0.00 | 0.00 | 65 | |
| 20260902102051 | 76 | 225 | 5.2 | 9.6 | 0.00 | 0.00 | 0.00 | 66 | |
| 20260902101053 | 76 | 230 | 4.3 | 8.7 | 0.00 | 0.00 | 0.00 | 64 | |
| 20260902094044 | 74 | 245 | 3.5 | 7.0 | 0.00 | 0.00 | 0.00 | 69 | |
| 20260902093050 | 73 | 246 | 3.5 | 7.0 | 0.00 | 0.00 | 0.00 | 71 | |
| 20260902092053 | 73 | 225 | 4.3 | 10.4 | 0.00 | 0.00 | 0.00 | 71 | |
| 20260902091051 | 70 | 225 | 3.5 | 5.2 | 0.00 | 0.00 | 0.00 | 76 | |
| 20260902090049 | 68 | 222 | 3.5 | 6.1 | 0.00 | 0.00 | 0.00 | 77 | |
| 20260902085039 | 67 | 231 | 3.5 | 6.1 | 0.00 | 0.00 | 0.00 | 79 | |
| 20260902084037 | 67 | 225 | 3.5 | 7.0 | 0.00 | 0.00 | 0.00 | 79 | |
| 20260902083055 | 67 | 224 | 2.6 | 6.1 | 0.00 | 0.00 | 0.00 | 80 | |
| 20260902082050 | 67 | 223 | 4.3 | 8.7 | 0.00 | 0.00 | 0.00 | 80 | |
| 20260902081047 | 67 | 226 | 2.6 | 6.1 | 0.00 | 0.00 | 0.00 | 81 | |
| 20260902080045 | 66 | 219 | 3.5 | 7.0 | 0.00 | 0.00 | 0.00 | 83 | |
| 20260902075044 | 66 | 206 | 3.5 | 7.0 | 0.00 | 0.00 | 0.00 | 84 | |
| 20260902074055 | 65 | 224 | 3.5 | 7.8 | 0.00 | 0.00 | 0.00 | 85 | |
| 20260902073100 | 63 | 225 | 4.3 | 8.7 | 0.00 | 0.00 | 0.00 | 87 | |
| 20260902072038 | 63 | 219 | 3.5 | 7.0 | 0.00 | 0.00 | 0.00 | 88 | |
| 20260902071051 | 62 | 222 | 3.5 | 7.0 | 0.00 | 0.00 | 0.00 | 89 | |
| 20260902070058 | 61 | 221 | 1.7 | 6.1 | 0.00 | 0.00 | 0.00 | 90 | |
| 20260902065052 | 60 | 198 | 2.6 | 5.2 | 0.00 | 0.00 | 0.00 | 91 | |
| 20260902064041 | 60 | 227 | 3.5 | 6.1 | 0.00 | 0.00 | 0.00 | 91 | |
| 20260902063050 | 60 | 228 | 4.3 | 8.7 | 0.00 | 0.00 | 0.00 | 91 | |
| 20260902062044 | 60 | 207 | 5.2 | 8.7 | 0.00 | 0.00 | 0.00 | 92 | |
| 20260902061045 | 59 | 206 | 4.3 | 7.0 | 0.00 | 0.00 | 0.00 | 93 | |
| 20260902060051 | 58 | 219 | 0.9 | 4.3 | 0.00 | 0.00 | 0.00 | 94 | |
| 20260902055052 | 58 | 180 | 0.9 | 1.7 | 0.00 | 0.00 | 0.00 | 94 | |
| 20260902054046 | 57 | 185 | 0.0 | 1.7 | 0.00 | 0.00 | 0.00 | 95 | |
| 20260902053045 | 57 | 177 | 0.0 | 1.7 | 0.00 | 0.00 | 0.00 | 95 | |
| 20260902052055 | 57 | 134 | 0.0 | 1.7 | 0.00 | 0.00 | 0.00 | 95 | |
| 20260902045044 | 56 | 223 | 1.7 | 4.3 | 0.00 | 0.00 | 0.00 | 95 | |
| 20260902044053 | 56 | 229 | 0.9 | 2.6 | 0.00 | 0.00 | 0.00 | 96 | |
| 20260902043059 | 56 | 137 | 0.9 | 2.6 | 0.00 | 0.00 | 0.00 | 96 | |
| 20260902042049 | 55 | 129 | 0.0 | 1.7 | 0.00 | 0.00 | 0.00 | 96 | |
| 20260902041038 | 55 | 137 | 0.0 | 0.9 | 0.00 | 0.00 | 0.00 | 96 | |
| 20260902040049 | 55 | 182 | 0.9 | 1.7 | 0.00 | 0.00 | 0.00 | 96 | |
| 20260902035036 | 55 | 175 | 0.9 | 2.6 | 0.00 | 0.00 | 0.00 | 96 | |
| 20260902033059 | 55 | 220 | 0.0 | 0.9 | 0.00 | 0.00 | 0.00 | 97 | |
| 20260902032051 | 54 | 231 | 0.9 | 1.7 | 0.00 | 0.00 | 0.00 | 97 | |
| 20260902031038 | 54 | 227 | 0.0 | 0.0 | 0.00 | 0.00 | 0.00 | 97 | |
| 20260902030048 | 54 | 226 | 0.0 | 0.0 | 0.00 | 0.00 | 0.00 | 97 | |
| 20260902025041 | 54 | 230 | 0.0 | 0.9 | 0.00 | 0.00 | 0.00 | 97 | |
| 20260902024045 | 54 | 220 | 0.0 | 0.0 | 0.00 | 0.00 | 0.00 | 97 | |
| 20260902023043 | 54 | 222 | 0.0 | 0.0 | 0.00 | 0.00 | 0.00 | 96 | |
| 20260902022054 | 54 | 227 | 0.0 | 0.9 | 0.00 | 0.00 | 0.00 | 96 | |
| 20260902021053 | 54 | 226 | 0.0 | 1.7 | 0.00 | 0.00 | 0.00 | 96 | |
| 20260902020056 | 54 | 250 | 0.9 | 1.7 | 0.00 | 0.00 | 0.00 | 96 | |
| 20260902015051 | 54 | 209 | 0.9 | 1.7 | 0.00 | 0.00 | 0.00 | 96 | |
| 20260902014048 | 54 | 209 | 0.0 | 0.9 | 0.00 | 0.00 | 0.00 | 96 | |
| 20260902012047 | 55 | 208 | 0.0 | 1.7 | 0.00 | 0.00 | 0.00 | 96 | |
| 20260902011043 | 56 | 197 | 0.9 | 2.6 | 0.00 | 0.00 | 0.00 | 96 | |
| 20260902010046 | 56 | 153 | 0.0 | 0.0 | 0.00 | 0.00 | 0.00 | 96 | |
| 20260902005039 | 56 | 152 | 0.9 | 1.7 | 0.00 | 0.00 | 0.00 | 96 | |
| 20260902003054 | 56 | 222 | 1.7 | 3.5 | 0.00 | 0.00 | 0.00 | 95 | |
| 20260902002045 | 56 | 223 | 1.7 | 2.6 | 0.00 | 0.00 | 0.00 | 95 | |
| 20260902001036 | 56 | 220 | 1.7 | 3.5 | 0.00 | 0.00 | 0.00 | 95 | |
| 20260901235053 | 57 | 220 | 1.7 | 3.5 | 0.00 | 0.00 | 0.00 | 95 | |
| 20260901233050 | 57 | 251 | 1.7 | 3.5 | 0.00 | 0.00 | 0.00 | 94 | |
| 20260901232043 | 57 | 242 | 1.7 | 4.3 | 0.00 | 0.00 | 0.00 | 94 | |
| 20260901231044 | 57 | 224 | 1.7 | 4.3 | 0.00 | 0.00 | 0.00 | 93 | |
| 20260901230100 | 57 | 229 | 1.7 | 4.3 | 0.00 | 0.00 | 0.00 | 93 | |
| 20260901225045 | 58 | 225 | 1.7 | 4.3 | 0.00 | 0.00 | 0.00 | 93 | |
| 20260901224049 | 58 | 249 | 2.6 | 4.3 | 0.00 | 0.00 | 0.00 | 93 | |
| 20260901222057 | 58 | 246 | 2.6 | 5.2 | 0.00 | 0.00 | 0.00 | 92 | |
| 20260901221048 | 59 | 224 | 2.6 | 4.3 | 0.00 | 0.00 | 0.00 | 92 | |
| 20260901215046 | 59 | 246 | 2.6 | 5.2 | 0.00 | 0.00 | 0.00 | 91 | |
| 20260901214046 | 60 | 253 | 2.6 | 6.1 | 0.00 | 0.00 | 0.00 | 91 | |
| 20260901213047 | 60 | 245 | 2.6 | 7.0 | 0.00 | 0.00 | 0.00 | 90 | |
| 20260901212043 | 60 | 265 | 2.6 | 7.0 | 0.00 | 0.00 | 0.00 | 90 | |
| 20260901211102 | 60 | 276 | 2.6 | 9.6 | 0.00 | 0.00 | 0.00 | 89 | |
| 20260901210101 | 60 | 294 | 2.6 | 9.6 | 0.00 | 0.00 | 0.00 | 89 | |
| 20260901205041 | 61 | 274 | 3.5 | 10.4 | 0.00 | 0.00 | 0.00 | 89 | |
| 20260901204045 | 61 | 249 | 3.5 | 9.6 | 0.00 | 0.00 | 0.00 | 89 | |
| 20260901203051 | 61 | 245 | 3.5 | 11.3 | 0.00 | 0.00 | 0.00 | 88 | |
| 20260901202052 | 61 | 266 | 2.6 | 8.7 | 0.00 | 0.00 | 0.00 | 88 | |
| 20260901201043 | 61 | 242 | 3.5 | 10.4 | 0.00 | 0.00 | 0.00 | 87 | |
| 20260901194045 | 62 | 253 | 3.5 | 9.6 | 0.00 | 0.00 | 0.00 | 85 | |
| 20260901193053 | 62 | 247 | 4.3 | 13.9 | 0.00 | 0.00 | 0.00 | 85 | |
| 20260901192046 | 62 | 242 | 3.5 | 11.3 | 0.00 | 0.00 | 0.00 | 84 | |
| 20260901191048 | 63 | 275 | 3.5 | 9.6 | 0.00 | 0.00 | 0.00 | 84 | |
| 20260901190055 | 63 | 246 | 4.3 | 11.3 | 0.00 | 0.00 | 0.00 | 83 | |
| 20260901185049 | 64 | 244 | 4.3 | 10.4 | 0.00 | 0.00 | 0.00 | 82 | |
| 20260901184042 | 64 | 253 | 4.3 | 9.6 | 0.00 | 0.00 | 0.00 | 82 | |
| 20260901183054 | 64 | 220 | 4.3 | 8.7 | 0.00 | 0.00 | 0.00 | 81 | |
| 20260901182039 | 65 | 228 | 4.3 | 8.7 | 0.00 | 0.00 | 0.00 | 81 | |
| 20260901181039 | 66 | 253 | 3.5 | 6.1 | 0.00 | 0.00 | 0.00 | 80 | |
| 20260901180057 | 67 | 223 | 4.3 | 8.7 | 0.00 | 0.00 | 0.00 | 79 | |
| 20260901175040 | 67 | 246 | 3.5 | 7.8 | 0.00 | 0.00 | 0.00 | 79 | |
| 20260901173052 | 68 | 249 | 4.3 | 9.6 | 0.00 | 0.00 | 0.00 | 78 | |
| 20260901171052 | 68 | 248 | 3.5 | 9.6 | 0.00 | 0.00 | 0.00 | 76 | |
| 20260901170055 | 69 | 227 | 3.5 | 8.7 | 0.00 | 0.00 | 0.00 | 75 | |
| 20260901163051 | 70 | 251 | 3.5 | 10.4 | 0.00 | 0.00 | 0.00 | 73 | |
| 20260901162042 | 70 | 243 | 3.5 | 10.4 | 0.00 | 0.00 | 0.00 | 72 | |
| 20260901160100 | 72 | 221 | 5.2 | 13.0 | 0.00 | 0.00 | 0.00 | 70 | |
| 20260901155056 | 72 | 222 | 4.3 | 8.7 | 0.00 | 0.00 | 0.00 | 71 | |
| 20260901154053 | 72 | 220 | 5.2 | 12.2 | 0.00 | 0.00 | 0.00 | 70 | |
| 20260901153043 | 72 | 230 | 5.2 | 12.2 | 0.00 | 0.00 | 0.00 | 70 | |
| 20260901152046 | 72 | 244 | 3.5 | 9.6 | 0.00 | 0.00 | 0.00 | 71 | |
| 20260901151046 | 72 | 254 | 3.5 | 9.6 | 0.00 | 0.00 | 0.00 | 71 | |
| 20260901145040 | 73 | 249 | 4.3 | 13.0 | 0.00 | 0.00 | 0.00 | 69 | |
| 20260901144045 | 73 | 272 | 5.2 | 12.2 | 0.00 | 0.00 | 0.00 | 67 | |
| 20260901143058 | 74 | 242 | 3.5 | 13.9 | 0.00 | 0.00 | 0.00 | 65 | |
| 20260901142049 | 76 | 250 | 3.5 | 13.9 | 0.00 | 0.00 | 0.00 | 66 | |
| 20260901135039 | 76 | 310 | 4.3 | 13.0 | 0.00 | 0.00 | 0.00 | 66 | |
| 20260901133057 | 77 | 289 | 6.1 | 19.1 | 0.00 | 0.00 | 0.00 | 63 | |
| 20260901132052 | 77 | 274 | 7.0 | 22.6 | 0.00 | 0.00 | 0.00 | 61 | |
| 20260901130053 | 79 | 294 | 3.5 | 17.4 | 0.00 | 0.00 | 0.00 | 60 | |
| 20260901124052 | 79 | 289 | 4.3 | 13.9 | 0.00 | 0.00 | 0.00 | 59 | |
| 20260901123046 | 80 | 265 | 4.3 | 13.9 | 0.00 | 0.00 | 0.00 | 58 | |
| 20260901122052 | 79 | 248 | 6.1 | 19.1 | 0.00 | 0.00 | 0.00 | 57 | |
| 20260901121039 | 80 | 320 | 5.2 | 18.2 | 0.00 | 0.00 | 0.00 | 56 |